CRN1007 TJPS-TJBQ

Flight info

Callsign CRN1007
Flight time 0h 27m
Altitude 3500
Route DROUN
Aircraft H60/L-DGILORTUVY/SB2

Departure

Time 2026-04-28 14:36
Airport Mercedita International Airport (TJPS)

Arrival

Time 2026-04-28 15:04
Airport Rafael Hernández International Airport (TJBQ)
Time Latitude Longitude Altitude Speed Heading
2026-04-28 14:31 18.01246 -66.57466 31 ft 0 kts 103°
2026-04-28 14:34 18.01247 -66.57466 31 ft 0 kts 162°
2026-04-28 14:34 18.01246 -66.57466 31 ft 0 kts 160°
2026-04-28 14:35 18.01238 -66.57463 31 ft 7 kts 158°
2026-04-28 14:35 18.01192 -66.57433 31 ft 6 kts 121°
2026-04-28 14:35 18.01141 -66.57299 52 ft 33 kts 116°
2026-04-28 14:36 18.00998 -66.56842 185 ft 102 kts 108°
2026-04-28 14:36 18.00753 -66.56081 534 ft 104 kts 109°
2026-04-28 14:36 18.00522 -66.55392 1169 ft 101 kts 109°
2026-04-28 14:36 18.00294 -66.54701 1778 ft 99 kts 109°
2026-04-28 14:37 18.00078 -66.54021 1970 ft 99 kts 109°
2026-04-28 14:37 17.99867 -66.53386 2030 ft 102 kts 109°
2026-04-28 14:37 17.99643 -66.52700 2045 ft 99 kts 109°
2026-04-28 14:37 17.99417 -66.52017 2026 ft 100 kts 117°
2026-04-28 14:38 17.99117 -66.51529 2046 ft 42 kts 261°
2026-04-28 14:38 17.98983 -66.51550 2018 ft 14 kts 261°
2026-04-28 14:38 17.98938 -66.51696 2035 ft 30 kts 261°
2026-04-28 14:38 17.98865 -66.52040 2033 ft 81 kts 261°
2026-04-28 14:39 17.98741 -66.52835 2029 ft 121 kts 261°
2026-04-28 14:39 17.98605 -66.53711 2032 ft 121 kts 261°
2026-04-28 14:39 17.98486 -66.54588 2027 ft 121 kts 262°
2026-04-28 14:39 17.98351 -66.55462 2028 ft 121 kts 261°
2026-04-28 14:40 17.98215 -66.56338 2025 ft 121 kts 261°
2026-04-28 14:40 17.98171 -66.56621 2026 ft 121 kts 261°
2026-04-28 14:40 17.97946 -66.58094 2048 ft 125 kts 261°
2026-04-28 14:40 17.97818 -66.58985 2179 ft 124 kts 261°
2026-04-28 14:41 17.97689 -66.59877 2364 ft 123 kts 261°
2026-04-28 14:41 17.97563 -66.60785 2348 ft 127 kts 261°
2026-04-28 14:41 17.97433 -66.61703 2411 ft 128 kts 261°
2026-04-28 14:41 17.97308 -66.62616 2416 ft 126 kts 261°
2026-04-28 14:42 17.97175 -66.63529 2420 ft 127 kts 261°
2026-04-28 14:42 17.97045 -66.64446 2423 ft 127 kts 261°
2026-04-28 14:42 17.96917 -66.65366 2419 ft 127 kts 261°
2026-04-28 14:42 17.96793 -66.66278 2427 ft 126 kts 261°
2026-04-28 14:43 17.96667 -66.67187 2428 ft 126 kts 261°
2026-04-28 14:43 17.96543 -66.68100 2426 ft 126 kts 261°
2026-04-28 14:43 17.96420 -66.69009 2424 ft 126 kts 261°
2026-04-28 14:43 17.96320 -66.69972 2499 ft 145 kts 265°
2026-04-28 14:44 17.96314 -66.71133 2700 ft 171 kts 272°
2026-04-28 14:44 17.96420 -66.72426 2601 ft 177 kts 275°
2026-04-28 14:44 17.96525 -66.73679 2469 ft 168 kts 275°
2026-04-28 14:44 17.96627 -66.74867 2502 ft 160 kts 275°
2026-04-28 14:45 17.96727 -66.76020 2504 ft 158 kts 275°
2026-04-28 14:45 17.96831 -66.77159 2509 ft 156 kts 275°
2026-04-28 14:45 17.96935 -66.78288 2518 ft 156 kts 275°
2026-04-28 14:45 17.97004 -66.79039 2495 ft 156 kts 275°
2026-04-28 14:46 17.97138 -66.80544 2522 ft 159 kts 275°
2026-04-28 14:46 17.97235 -66.81689 2534 ft 159 kts 275°
2026-04-28 14:46 17.97289 -66.82297 2462 ft 153 kts 275°
2026-04-28 14:47 17.97309 -66.82526 2350 ft 159 kts 275°
2026-04-28 14:47 17.97375 -66.83301 2404 ft 161 kts 275°
2026-04-28 14:48 17.97468 -66.84467 2817 ft 161 kts 284°
2026-04-28 14:48 17.97691 -66.85615 2717 ft 161 kts 288°
2026-04-28 14:48 17.98028 -66.86742 2783 ft 161 kts 288°
2026-04-28 14:48 17.98360 -66.87864 3090 ft 159 kts 288°
2026-04-28 14:49 17.98693 -66.88979 3108 ft 160 kts 290°
2026-04-28 14:49 17.99244 -66.89922 2883 ft 153 kts 308°
2026-04-28 14:49 17.99890 -66.90830 3038 ft 151 kts 308°
2026-04-28 14:49 18.00515 -66.91707 3440 ft 144 kts 308°
2026-04-28 14:50 18.01136 -66.92576 3193 ft 155 kts 308°
2026-04-28 14:50 18.01773 -66.93468 3203 ft 155 kts 308°
2026-04-28 14:50 18.02415 -66.94365 3230 ft 154 kts 308°
2026-04-28 14:50 18.03052 -66.95260 3242 ft 154 kts 308°
2026-04-28 14:51 18.03693 -66.96160 3283 ft 154 kts 308°
2026-04-28 14:51 18.04329 -66.97048 3216 ft 155 kts 308°
2026-04-28 14:51 18.04968 -66.97943 3317 ft 151 kts 308°
2026-04-28 14:51 18.05596 -66.98825 3524 ft 150 kts 308°
2026-04-28 14:52 18.06209 -66.99684 3432 ft 148 kts 308°
2026-04-28 14:52 18.06862 -67.00597 3485 ft 154 kts 308°
2026-04-28 14:52 18.07508 -67.01498 3390 ft 155 kts 308°
2026-04-28 14:52 18.08156 -67.02403 3341 ft 156 kts 308°
2026-04-28 14:53 18.08803 -67.03308 3371 ft 155 kts 308°
2026-04-28 14:53 18.09438 -67.04199 3222 ft 155 kts 308°
2026-04-28 14:53 18.10093 -67.05111 3289 ft 152 kts 308°
2026-04-28 14:53 18.10743 -67.06018 3306 ft 154 kts 308°
2026-04-28 14:54 18.11391 -67.06917 3442 ft 152 kts 308°
2026-04-28 14:54 18.12038 -67.07815 3259 ft 158 kts 308°
2026-04-28 14:54 18.12685 -67.08715 3236 ft 156 kts 308°
2026-04-28 14:54 18.13333 -67.09617 3260 ft 155 kts 308°
2026-04-28 14:55 18.13981 -67.10523 3380 ft 152 kts 308°
2026-04-28 14:55 18.14617 -67.11413 3243 ft 155 kts 308°
2026-04-28 14:55 18.15257 -67.12307 3506 ft 148 kts 308°
2026-04-28 14:55 18.15917 -67.13211 3498 ft 160 kts 335°
2026-04-28 14:56 18.16801 -67.13879 2786 ft 155 kts 342°
2026-04-28 14:56 18.17799 -67.14057 2683 ft 140 kts 360°
2026-04-28 14:56 18.18733 -67.14082 2797 ft 141 kts
2026-04-28 14:56 18.19728 -67.14106 2830 ft 144 kts
2026-04-28 14:57 18.20740 -67.14133 2804 ft 146 kts
2026-04-28 14:57 18.21419 -67.14150 2794 ft 148 kts
2026-04-28 14:57 18.22799 -67.14182 2756 ft 149 kts
2026-04-28 14:57 18.23833 -67.14204 2730 ft 149 kts
2026-04-28 14:58 18.24856 -67.14226 2698 ft 149 kts
2026-04-28 14:58 18.25891 -67.14247 2673 ft 148 kts
2026-04-28 14:58 18.26922 -67.14268 2636 ft 148 kts
2026-04-28 14:58 18.27952 -67.14289 2603 ft 148 kts
2026-04-28 14:59 18.28983 -67.14307 2581 ft 148 kts
2026-04-28 14:59 18.29985 -67.14326 2592 ft 143 kts
2026-04-28 14:59 18.30982 -67.14345 2607 ft 143 kts
2026-04-28 14:59 18.31977 -67.14363 2607 ft 143 kts
2026-04-28 15:00 18.32972 -67.14376 2585 ft 143 kts
2026-04-28 15:00 18.33968 -67.14390 2568 ft 143 kts
2026-04-28 15:00 18.34963 -67.14404 2548 ft 143 kts
2026-04-28 15:00 18.35958 -67.14417 2527 ft 143 kts
2026-04-28 15:01 18.36943 -67.14430 2525 ft 143 kts
2026-04-28 15:01 18.37941 -67.14441 2525 ft 143 kts
2026-04-28 15:01 18.38936 -67.14452 2525 ft 143 kts
2026-04-28 15:01 18.39930 -67.14464 2512 ft 143 kts
2026-04-28 15:02 18.40920 -67.14478 2512 ft 142 kts
2026-04-28 15:02 18.41910 -67.14491 2521 ft 142 kts
2026-04-28 15:02 18.42898 -67.14504 2549 ft 142 kts
2026-04-28 15:02 18.43887 -67.14518 2562 ft 142 kts
2026-04-28 15:03 18.44876 -67.14531 2584 ft 142 kts
2026-04-28 15:03 18.45866 -67.14544 2588 ft 142 kts
2026-04-28 15:03 18.46856 -67.14635 2036 ft 148 kts 350°
2026-04-28 15:03 18.47859 -67.14794 1464 ft 128 kts 353°
2026-04-28 15:04 18.48542 -67.14851 1315 ft 71 kts 356°
2026-04-28 15:04 18.48880 -67.14884 1190 ft 30 kts 354°
2026-04-28 15:04 18.48906 -67.14888 1065 ft 14 kts 354°
2026-04-28 15:04 18.48832 -67.14881 937 ft 6 kts 354°
2026-04-28 15:05 18.48862 -67.14827 816 ft 11 kts 78°
2026-04-28 15:05 18.48892 -67.14693 692 ft 32 kts 75°
2026-04-28 15:05 18.48956 -67.14443 549 ft 21 kts 75°
2026-04-28 15:05 18.49048 -67.14316 465 ft 23 kts 75°
2026-04-28 15:06 18.49166 -67.14221 412 ft 22 kts 75°
2026-04-28 15:06 18.49280 -67.14189 351 ft 5 kts 75°
2026-04-28 15:06 18.49286 -67.14179 288 ft 0 kts 75°
2026-04-28 15:06 18.49297 -67.14182 249 ft 0 kts 75°
2026-04-28 15:07 18.49296 -67.14182 238 ft 0 kts 75°